Vorticity
9 8 7 7 4 7 4 6 11 11 10 7 7 8 8 8 6 5 16 5 8 4 4 3 3 3 2 2 2 4 3 6 29 27 32 24 23 14 17 -10 5 33 -4 11
7 8 7 6 5 3 4 4 11 9 9 6 5 7 8 7 5 18 11 8 6 2 2 3 4 4 3 3 3 6 6 6 29 27 34 22 21 15 -8 15 16 7 10 5
7 7 7 4 2 6 2 4 10 9 7 7 6 5 7 6 12 11 7 6 6 4 2 3 6 8 4 4 5 3 12 28 33 12 11 9 13 3 11 18 3 -7 18 15
6 7 5 2 1 4 5 5 9 9 10 7 6 6 6 5 10 7 5 4 5 4 4 6 7 7 3 6 4 4 14 37 17 7 6 8 6 4 9 13 2 8 9 11
7 7 5 1 3 3 1 4 8 10 8 8 7 6 7 6 12 16 5 4 3 4 4 7 7 5 4 3 7 7 10 32 7 9 20 6 8 15 34 13 10 45 -0 7
8 6 5 4 5 2 2 5 8 8 8 8 7 6 7 4 16 13 6 1 1 2 6 9 7 4 3 4 4 6 22 17 22 5 -3 7 2 9 7 14 21 -3 9 6
8 5 6 5 7 1 4 6 11 8 9 8 7 6 7 6 18 12 5 3 2 1 9 8 4 2 5 3 1 15 23 9 37 11 2 2 4 14 6 -4 9 11 9 4
8 6 5 6 5 2 5 9 10 8 8 7 6 7 6 9 18 12 7 4 1 6 9 5 3 4 2 1 12 43 36 11 24 2 -12 5 8 9 5 20 12 10 4 3
7 5 6 6 3 6 6 8 7 7 6 5 6 7 5 12 13 10 5 3 4 9 5 3 3 2 4 25 42 51 29 8 26 10 12 3 7 11 25 10 11 6 4 3
6 6 5 7 4 7 5 8 6 7 8 7 8 7 5 14 11 6 3 3 9 5 4 3 2 7 25 26 35 47 51 14 22 7 -2 3 12 13 22 8 9 6 4 3
6 7 6 4 5 5 6 7 6 6 6 7 8 6 7 15 8 5 4 8 6 5 3 3 7 29 22 34 47 53 44 21 24 17 -7 17 11 2 9 10 15 6 5 3
7 6 6 4 4 4 6 9 6 5 8 7 7 4 10 9 5 5 7 6 6 4 6 6 26 31 30 46 48 39 30 26 17 18 7 6 14 17 1 12 9 6 6 2
7 6 5 4 5 4 7 8 4 6 7 9 8 5 11 7 7 6 5 6 3 4 1 9 31 19 32 29 35 24 29 9 15 11 8 -1 8 23 0 8 9 6 7 4
7 7 6 5 5 5 7 7 6 6 7 9 5 7 9 7 7 6 6 4 5 4 3 21 27 32 33 30 31 18 12 18 7 9 -4 1 6 24 -9 10 9 6 8 7
8 7 6 6 7 7 8 7 5 6 8 7 6 9 9 9 6 7 5 3 4 4 4 30 24 36 33 26 6 4 14 16 13 13 14 8 -1 1 13 14 9 6 7 9
8 6 6 5 6 7 9 7 6 6 8 8 6 9 7 5 7 6 6 3 4 4 3 27 21 26 22 16 -1 10 4 13 12 17 11 9 21 24 17 18 10 6 6 9
7 7 7 7 7 8 8 6 4 6 7 7 9 7 6 4 7 6 6 4 3 5 2 28 20 27 11 12 4 4 3 11 15 7 8 8 9 16 7 14 12 7 7 8
5 6 6 7 7 8 8 6 5 7 8 7 9 7 4 4 8 8 6 5 2 5 4 18 30 25 11 14 8 -1 9 10 13 6 11 16 5 11 1 16 10 7 7 7
6 7 7 8 8 9 8 6 4 6 7 8 8 7 7 6 8 8 5 7 4 1 9 13 30 25 25 9 8 2 8 8 12 11 10 15 19 6 9 16 8 8 9 7
6 8 8 8 8 9 7 6 5 7 7 10 9 9 7 6 5 8 3 7 5 2 9 5 16 22 32 16 13 5 8 -1 5 7 15 16 10 3 16 15 8 7 10 8
7 7 9 10 10 10 7 5 4 7 8 8 9 10 7 6 4 5 4 8 8 2 5 11 7 20 18 23 17 28 7 1 4 7 6 27 11 10 10 18 9 6 9 13
7 8 9 8 9 9 7 5 6 8 8 7 7 8 8 9 5 4 3 6 9 11 4 8 12 14 19 15 14 11 28 7 6 4 6 13 13 14 5 14 10 7 7 11
7 8 8 9 9 8 7 7 9 10 7 6 7 6 8 12 9 5 3 1 7 7 7 1 11 12 21 28 -2 13 13 23 6 6 5 6 13 32 14 1 13 9 7 7
8 9 10 8 9 8 9 7 9 10 5 6 8 6 4 8 8 7 8 7 1 1 7 12 5 10 14 24 17 -4 6 9 16 10 5 4 -1 17 35 15 2 14 10 7
9 10 9 10 10 11 3 7 14 8 6 3 4 4 0 4 0 1 3 8 6 4 4 9 8 14 13 10 21 25 0 2 11 11 10 8 6 2 14 17 5 9 16 11
7 4 8 11 4 4 10 19 13 9 3 6 8 5 4 4 1 4 2 5 9 6 5 5 7 12 13 15 9 8 25 22 6 8 11 10 6 7 8 14 12 11 2 18
8 5 11 11 -2 7 3 9 8 11 4 4 4 5 5 5 4 3 2 7 12 7 3 6 9 17 15 14 15 3 10 16 21 24 8 10 10 10 8 9 4 26 -1 7
Height
5718 5725 5730 5735 5740 5747 5750 5752 5755 5756 5758 5761 5761 5762 5764 5763 5763 5763 5762 5762 5762 5761 5760 5758 5755 5752 5748 5743 5738 5732 5725 5716 5707 5698 5691 5689 5689 5689 5691 5692 5693 5692 5694 5696
5717 5723 5728 5734 5740 5744 5748 5751 5753 5756 5758 5760 5761 5761 5762 5762 5762 5761 5760 5761 5761 5759 5758 5756 5752 5749 5744 5739 5734 5727 5721 5713 5706 5699 5695 5693 5692 5694 5695 5694 5693 5695 5696 5698
5714 5721 5728 5734 5739 5743 5747 5751 5753 5755 5758 5759 5760 5761 5761 5761 5760 5759 5759 5759 5758 5757 5755 5752 5749 5745 5740 5735 5730 5725 5720 5713 5707 5704 5701 5699 5699 5699 5697 5697 5697 5697 5698 5699
5712 5719 5726 5733 5737 5742 5746 5749 5751 5754 5756 5758 5759 5760 5760 5759 5758 5758 5758 5758 5756 5755 5752 5749 5745 5740 5736 5731 5726 5722 5718 5714 5710 5707 5706 5705 5703 5701 5700 5700 5699 5700 5701 5702
5710 5718 5724 5732 5736 5740 5744 5748 5751 5752 5754 5756 5757 5758 5758 5757 5756 5756 5756 5755 5753 5751 5749 5745 5740 5735 5730 5726 5722 5718 5716 5713 5711 5709 5709 5707 5706 5704 5700 5701 5701 5701 5704 5706
5708 5715 5722 5729 5734 5738 5742 5746 5749 5751 5753 5755 5756 5757 5756 5755 5755 5754 5754 5753 5751 5749 5745 5740 5735 5730 5724 5719 5715 5713 5712 5710 5710 5709 5708 5707 5708 5707 5706 5705 5705 5706 5707 5709
5707 5713 5720 5727 5731 5737 5741 5745 5748 5750 5752 5753 5755 5755 5755 5754 5753 5753 5752 5751 5749 5746 5741 5736 5730 5724 5717 5711 5707 5704 5703 5703 5704 5705 5706 5707 5707 5707 5708 5709 5709 5710 5711 5711
5705 5711 5718 5724 5730 5736 5740 5743 5746 5748 5750 5752 5753 5753 5753 5752 5751 5751 5750 5748 5746 5742 5736 5731 5723 5715 5709 5701 5695 5690 5689 5692 5693 5697 5701 5706 5706 5708 5709 5711 5713 5713 5714 5714
5702 5710 5717 5723 5730 5734 5739 5742 5744 5747 5748 5750 5751 5751 5751 5751 5750 5749 5748 5746 5742 5738 5732 5725 5716 5707 5697 5685 5676 5673 5676 5682 5688 5691 5696 5701 5705 5707 5708 5711 5715 5716 5717 5717
5701 5709 5716 5723 5727 5732 5737 5740 5743 5745 5747 5748 5750 5750 5751 5750 5749 5748 5746 5744 5740 5735 5727 5719 5710 5699 5684 5670 5661 5656 5659 5669 5679 5687 5694 5700 5704 5706 5709 5714 5719 5718 5719 5720
5699 5708 5715 5720 5725 5731 5735 5738 5741 5744 5745 5747 5748 5749 5749 5749 5748 5747 5745 5743 5737 5731 5723 5714 5703 5688 5674 5661 5650 5647 5652 5664 5674 5685 5693 5700 5704 5707 5711 5715 5717 5720 5722 5723
5699 5706 5713 5718 5724 5729 5734 5737 5739 5742 5745 5745 5747 5748 5748 5748 5747 5746 5743 5740 5735 5728 5720 5710 5696 5681 5670 5658 5652 5651 5658 5667 5677 5687 5696 5702 5706 5709 5712 5715 5719 5722 5724 5726
5697 5704 5711 5717 5722 5727 5732 5735 5738 5741 5742 5745 5746 5747 5747 5747 5746 5745 5742 5738 5734 5727 5718 5707 5693 5682 5672 5666 5663 5663 5669 5676 5684 5692 5699 5705 5708 5711 5714 5717 5721 5724 5727 5728
5695 5703 5709 5715 5720 5725 5730 5733 5737 5740 5742 5743 5745 5746 5746 5746 5745 5743 5740 5737 5732 5726 5717 5707 5694 5686 5680 5676 5676 5678 5682 5687 5692 5698 5704 5709 5711 5714 5716 5719 5723 5726 5729 5730
5694 5701 5708 5713 5718 5723 5727 5731 5735 5738 5742 5742 5743 5745 5745 5745 5744 5742 5739 5736 5732 5725 5718 5709 5699 5693 5689 5689 5690 5691 5694 5698 5702 5706 5709 5712 5714 5716 5719 5721 5725 5728 5731 5732
5692 5698 5704 5710 5716 5721 5726 5730 5734 5737 5739 5741 5743 5744 5744 5744 5743 5741 5739 5736 5732 5726 5720 5713 5707 5702 5701 5702 5703 5703 5705 5706 5708 5711 5713 5715 5716 5718 5721 5724 5727 5730 5733 5735
5690 5696 5702 5708 5714 5719 5724 5729 5732 5735 5736 5739 5741 5742 5743 5743 5743 5741 5739 5736 5732 5728 5724 5718 5713 5711 5710 5710 5712 5712 5713 5713 5714 5716 5717 5719 5720 5722 5724 5727 5730 5732 5735 5737
5687 5694 5700 5705 5711 5717 5722 5726 5729 5732 5735 5737 5739 5741 5742 5742 5742 5740 5738 5736 5733 5729 5727 5723 5719 5717 5716 5717 5717 5717 5717 5718 5719 5720 5722 5723 5724 5726 5727 5729 5732 5734 5737 5739
5685 5692 5698 5704 5709 5715 5719 5723 5727 5730 5734 5735 5737 5739 5741 5741 5740 5739 5738 5736 5733 5730 5728 5725 5723 5720 5719 5720 5721 5721 5721 5722 5722 5723 5724 5725 5726 5728 5730 5732 5734 5736 5739 5741
5682 5689 5695 5701 5706 5712 5717 5721 5724 5728 5731 5733 5735 5737 5739 5740 5739 5738 5738 5735 5733 5730 5730 5727 5725 5723 5721 5720 5722 5724 5725 5725 5726 5727 5727 5727 5729 5730 5732 5734 5736 5738 5740 5742
5679 5686 5693 5699 5704 5709 5713 5718 5722 5725 5728 5731 5733 5735 5736 5737 5738 5737 5737 5735 5733 5731 5730 5728 5726 5725 5723 5722 5722 5723 5726 5727 5727 5728 5729 5729 5731 5732 5733 5735 5737 5739 5742 5744
5678 5684 5689 5695 5699 5705 5710 5714 5719 5723 5726 5728 5730 5732 5733 5735 5735 5735 5735 5734 5733 5732 5730 5728 5727 5726 5724 5724 5724 5724 5725 5727 5728 5729 5729 5730 5732 5732 5733 5735 5737 5739 5742 5743
5673 5680 5685 5691 5696 5701 5706 5711 5716 5719 5721 5724 5727 5729 5730 5731 5733 5733 5733 5733 5732 5731 5730 5728 5727 5726 5725 5724 5725 5724 5724 5726 5728 5729 5730 5730 5731 5732 5733 5735 5736 5738 5740 5742
5671 5677 5683 5688 5692 5698 5705 5708 5712 5715 5718 5720 5723 5725 5727 5728 5729 5730 5730 5730 5730 5729 5728 5726 5725 5725 5725 5724 5725 5725 5725 5725 5726 5727 5729 5729 5730 5730 5731 5733 5734 5736 5738 5740
5669 5675 5679 5684 5691 5696 5700 5703 5707 5711 5713 5716 5719 5722 5724 5724 5725 5726 5726 5726 5725 5726 5725 5724 5724 5722 5722 5722 5722 5722 5722 5723 5724 5724 5725 5727 5727 5728 5729 5730 5731 5732 5734 5736
5665 5671 5676 5682 5688 5692 5695 5699 5702 5706 5709 5712 5715 5717 5718 5719 5721 5722 5721 5721 5720 5722 5721 5721 5720 5720 5718 5718 5718 5717 5717 5718 5719 5720 5721 5722 5724 5725 5725 5726 5727 5728 5729 5731
5661 5667 5673 5678 5682 5686 5690 5694 5698 5701 5705 5707 5709 5711 5712 5715 5716 5716 5716 5715 5715 5716 5716 5716 5716 5716 5715 5715 5714 5714 5713 5712 5712 5713 5715 5717 5718 5719 5721 5721 5722 5722 5724 5725